Year,Month,Day,Hour,Minute,Value (Times are PST for temperature in C)
2008,11,21,10,34,7.10
2008,11,21,10,35,7.10
2008,11,21,10,36,7.10
2008,11,21,10,37,7.10
2008,11,21,10,38,7.10
2008,11,21,10,39,7.20
2008,11,21,10,40,7.20
2008,11,21,10,41,7.20
2008,11,21,10,42,7.20
2008,11,21,10,43,7.20
2008,11,21,10,44,7.20
2008,11,21,10,45,7.20
2008,11,21,10,46,7.30
2008,11,21,10,47,7.30
2008,11,21,10,48,7.30
2008,11,21,10,49,7.30
2008,11,21,10,50,7.30
2008,11,21,10,51,7.30
2008,11,21,10,52,7.30
2008,11,21,10,53,7.40
2008,11,21,10,54,7.40
2008,11,21,10,55,7.40
2008,11,21,10,56,7.40
2008,11,21,10,57,7.50
2008,11,21,10,58,7.50
2008,11,21,10,59,7.50
2008,11,21,11,00,7.50
2008,11,21,11,01,7.50
2008,11,21,11,02,7.50
2008,11,21,11,03,7.60
2008,11,21,11,04,7.60
2008,11,21,11,05,7.60
2008,11,21,11,06,7.60
2008,11,21,11,07,7.60
2008,11,21,11,08,7.60
2008,11,21,11,09,7.60
2008,11,21,11,10,7.60
2008,11,21,11,11,7.70
2008,11,21,11,12,7.70
2008,11,21,11,13,7.70
2008,11,21,11,14,7.70
2008,11,21,11,15,7.70
2008,11,21,11,16,7.70
2008,11,21,11,17,7.70
2008,11,21,11,18,7.70
2008,11,21,11,19,7.70
2008,11,21,11,20,7.70
2008,11,21,11,21,7.80
2008,11,21,11,22,7.80
2008,11,21,11,23,7.80
2008,11,21,11,24,7.80
2008,11,21,11,25,7.80
2008,11,21,11,26,7.80
2008,11,21,11,27,7.80
2008,11,21,11,28,7.80
2008,11,21,11,29,7.80
2008,11,21,11,30,7.80
2008,11,21,11,31,7.80
2008,11,21,11,32,7.80
2008,11,21,11,33,7.80
2008,11,21,11,34,7.80
2008,11,21,11,35,7.80
2008,11,21,11,36,7.80
2008,11,21,11,37,7.90
2008,11,21,11,38,7.90
2008,11,21,11,39,7.90
2008,11,21,11,40,7.90
2008,11,21,11,41,7.90
2008,11,21,11,42,7.90
2008,11,21,11,43,7.90
2008,11,21,11,44,7.90
2008,11,21,11,45,7.90
2008,11,21,11,46,7.90
2008,11,21,11,47,7.90
2008,11,21,11,48,7.90
2008,11,21,11,49,7.90
2008,11,21,11,50,7.90
2008,11,21,11,51,7.90
2008,11,21,11,52,7.90
2008,11,21,11,53,7.90
2008,11,21,11,54,7.90
2008,11,21,11,55,7.90
2008,11,21,11,56,8.00
2008,11,21,11,57,8.00
2008,11,21,11,58,8.00
2008,11,21,11,59,8.00
2008,11,21,12,00,8.10
2008,11,21,12,01,8.00
2008,11,21,12,02,8.00
2008,11,21,12,03,8.00
2008,11,21,12,04,8.00
2008,11,21,12,05,8.00
2008,11,21,12,06,8.00
2008,11,21,12,07,8.00
2008,11,21,12,08,8.10
2008,11,21,12,09,8.10
2008,11,21,12,10,8.10
2008,11,21,12,11,8.10
2008,11,21,12,12,8.20
2008,11,21,12,13,8.20
2008,11,21,12,14,8.20
2008,11,21,12,15,8.20
2008,11,21,12,16,8.20
2008,11,21,12,17,8.20
2008,11,21,12,18,8.20
2008,11,21,12,19,8.20
2008,11,21,12,20,8.20
2008,11,21,12,21,8.20
2008,11,21,12,22,8.20
2008,11,21,12,23,8.20
2008,11,21,12,24,8.20
2008,11,21,12,25,8.30
2008,11,21,12,26,8.30
2008,11,21,12,27,8.30
2008,11,21,12,28,8.30
2008,11,21,12,29,8.40
2008,11,21,12,30,8.40
2008,11,21,12,31,8.40
2008,11,21,12,32,8.40
2008,11,21,12,33,8.40
2008,11,21,12,34,8.40
2008,11,21,12,35,8.40
2008,11,21,12,36,8.40
2008,11,21,12,37,8.40
2008,11,21,12,38,8.50
2008,11,21,12,39,8.50
2008,11,21,12,40,8.50
2008,11,21,12,41,8.60
2008,11,21,12,42,8.50
2008,11,21,12,43,8.60
2008,11,21,12,44,8.60
2008,11,21,12,45,8.70
2008,11,21,12,46,8.70
2008,11,21,12,47,8.60
2008,11,21,12,48,8.60
2008,11,21,12,49,8.50
2008,11,21,12,50,8.50
2008,11,21,12,51,8.50
2008,11,21,12,52,8.50
2008,11,21,12,53,8.50
2008,11,21,12,54,8.50
2008,11,21,12,55,8.50
2008,11,21,12,56,8.50
2008,11,21,12,57,8.50
2008,11,21,12,58,8.50
2008,11,21,12,59,8.50
2008,11,21,13,00,8.50
2008,11,21,13,01,8.50
2008,11,21,13,02,8.50
2008,11,21,13,03,8.60
2008,11,21,13,04,8.60
2008,11,21,13,05,8.60
2008,11,21,13,06,8.60
2008,11,21,13,07,8.70
2008,11,21,13,08,8.70
2008,11,21,13,09,8.70
2008,11,21,13,10,8.70
2008,11,21,13,11,8.70
2008,11,21,13,12,8.70
2008,11,21,13,13,8.70
2008,11,21,13,14,8.70
2008,11,21,13,15,8.70
2008,11,21,13,16,8.70
2008,11,21,13,17,8.70
2008,11,21,13,18,8.70
2008,11,21,13,19,8.70
2008,11,21,13,20,8.70
2008,11,21,13,21,8.70
2008,11,21,13,22,8.70
2008,11,21,13,23,8.60
2008,11,21,13,24,8.60
2008,11,21,13,25,8.60
2008,11,21,13,26,8.60
2008,11,21,13,27,8.50
2008,11,21,13,28,8.50
2008,11,21,13,29,8.50
2008,11,21,13,30,8.60
2008,11,21,13,31,8.60
2008,11,21,13,32,8.60
2008,11,21,13,33,8.60
2008,11,21,13,34,8.60
2008,11,21,13,35,8.60
2008,11,21,13,36,8.60
2008,11,21,13,37,8.60
2008,11,21,13,38,8.60
2008,11,21,13,39,8.60
2008,11,21,13,40,8.50
2008,11,21,13,41,8.50
2008,11,21,13,42,8.50
2008,11,21,13,43,8.50
2008,11,21,13,44,8.50
2008,11,21,13,45,8.50
2008,11,21,13,46,8.50
2008,11,21,13,47,8.50
2008,11,21,13,48,8.40
2008,11,21,13,49,8.40
2008,11,21,13,50,8.40
2008,11,21,13,51,8.40
2008,11,21,13,52,8.40
2008,11,21,13,53,8.40
2008,11,21,13,54,8.30
2008,11,21,13,55,8.30
2008,11,21,13,56,8.30
2008,11,21,13,57,8.30
2008,11,21,13,58,8.30
2008,11,21,13,59,8.30
2008,11,21,14,00,8.30
2008,11,21,14,01,8.30
2008,11,21,14,02,8.30
2008,11,21,14,03,8.30
2008,11,21,14,04,8.30
2008,11,21,14,05,8.30
2008,11,21,14,06,8.30
2008,11,21,14,07,8.30
2008,11,21,14,08,8.30
2008,11,21,14,09,8.30
2008,11,21,14,10,8.20
2008,11,21,14,11,8.20
2008,11,21,14,12,8.20
2008,11,21,14,13,8.20
2008,11,21,14,14,8.20
2008,11,21,14,15,8.20
2008,11,21,14,16,8.20
2008,11,21,14,17,8.20
2008,11,21,14,18,8.20
2008,11,21,14,19,8.20
2008,11,21,14,20,8.20
2008,11,21,14,21,8.20
2008,11,21,14,22,8.20
2008,11,21,14,23,8.20
2008,11,21,14,24,8.20
2008,11,21,14,25,8.20
2008,11,21,14,26,8.20
2008,11,21,14,27,8.20
2008,11,21,14,28,8.20
2008,11,21,14,29,8.20
2008,11,21,14,30,8.20
2008,11,21,14,31,8.20
2008,11,21,14,32,8.20
2008,11,21,14,33,8.20
2008,11,21,14,34,8.20
2008,11,21,14,35,8.20
2008,11,21,14,36,8.20
2008,11,21,14,37,8.20
2008,11,21,14,38,8.20
2008,11,21,14,39,8.20
2008,11,21,14,40,8.20
2008,11,21,14,41,8.20
2008,11,21,14,42,8.20
2008,11,21,14,43,8.20
2008,11,21,14,44,8.20
2008,11,21,14,45,8.20
2008,11,21,14,46,8.20
2008,11,21,14,47,8.20
2008,11,21,14,48,8.30
2008,11,21,14,49,8.30
2008,11,21,14,50,8.30
2008,11,21,14,51,8.30
2008,11,21,14,52,8.30
2008,11,21,14,53,8.30
2008,11,21,14,54,8.30
2008,11,21,14,55,8.30
2008,11,21,14,56,8.30
2008,11,21,14,57,8.30
2008,11,21,14,58,8.30
2008,11,21,14,59,8.30
2008,11,21,15,00,8.30
2008,11,21,15,01,8.30
2008,11,21,15,02,8.30
2008,11,21,15,03,8.30
2008,11,21,15,04,8.30
2008,11,21,15,05,8.30
